Wind_Speed
3 2 1 1 1 2 4 6 8 9 10 10 11 12 12 13 13 12 11 10 9 8 7 7 6 6 6 6 6 7 6 6 5 4 4 4 4 3 3 3 2 1 1 2 2 2 1 1 2
5 4 3 2 1 1 3 6 8 9 10 10 11 12 12 13 13 12 11 10 9 8 7 6 6 5 5 6 6 6 6 5 5 5 4 3 3 3 3 3 3 2 2 1 1 1 1 1 2
6 5 4 4 3 2 2 4 6 7 9 10 10 11 12 12 13 12 11 10 9 8 7 6 5 5 5 5 5 5 5 5 5 5 4 3 3 3 3 2 3 3 2 2 1 1 1 1 1
7 6 5 5 5 3 3 3 4 6 7 10 10 11 11 12 12 12 11 10 9 8 7 5 4 4 4 5 5 5 5 5 5 5 4 3 3 3 2 2 2 2 2 2 1 1 1 2 2
9 8 6 5 5 3 2 3 4 5 8 9 10 10 11 11 11 11 11 10 10 9 7 5 4 5 5 4 4 4 5 5 5 5 4 3 3 2 2 2 2 2 2 2 1 1 2 2 2
10 9 8 7 7 5 4 4 4 5 7 8 9 9 10 11 11 10 11 10 10 9 8 6 5 5 4 4 4 4 5 5 4 5 4 3 2 2 2 1 1 2 2 2 1 2 2 2 2
10 10 9 9 9 8 6 6 4 4 5 7 8 8 10 11 10 10 10 10 9 8 8 6 6 4 4 4 4 4 4 4 5 5 4 3 2 2 2 2 2 3 3 2 2 2 2 2 3
11 11 11 10 10 10 9 7 7 6 5 6 8 8 10 10 9 8 8 9 9 8 7 7 6 4 4 4 4 4 4 4 5 4 4 3 2 2 1 2 3 3 3 3 3 4 3 3 4
13 12 11 11 11 11 10 8 7 7 7 7 8 9 9 10 9 8 8 8 8 7 7 7 7 5 4 3 4 4 4 4 4 4 4 3 3 2 2 2 2 3 3 4 4 4 3 3 4
14 13 13 13 12 11 11 10 9 8 7 7 8 9 9 10 9 8 8 8 8 7 6 7 6 6 5 4 4 4 4 4 4 4 4 3 3 2 1 2 2 3 3 4 3 4 4 4 3
15 14 15 15 14 12 11 11 10 8 8 8 8 8 9 9 8 8 8 8 7 6 6 6 6 5 5 4 4 4 4 4 4 4 4 4 3 2 2 3 3 4 4 4 4 4 4 4 4
16 15 16 16 15 13 13 12 11 10 10 9 8 8 8 9 8 7 8 8 7 6 6 5 5 5 5 4 4 4 4 4 4 4 4 4 3 4 4 4 4 5 5 5 5 5 5 5 5
17 16 17 16 15 14 13 13 12 12 10 9 9 8 8 8 8 7 7 7 6 6 6 5 4 4 5 4 4 4 4 5 5 4 4 4 4 4 4 5 5 5 6 7 7 7 6 6 6
18 17 16 15 15 16 15 15 13 13 12 11 9 9 9 10 9 7 7 6 5 5 5 5 4 4 5 5 4 4 4 5 5 4 4 5 5 5 5 5 6 6 7 8 8 8 8 8 7
18 17 17 17 17 17 17 15 14 14 13 11 10 9 9 10 9 8 7 6 5 6 5 5 5 5 5 5 5 5 5 5 5 5 5 5 5 5 5 5 6 6 7 8 8 8 8 8 8
19 18 19 18 19 18 18 15 15 15 14 12 10 9 9 10 9 8 7 7 6 6 6 6 6 6 6 6 6 6 6 6 6 6 6 5 5 5 6 6 6 6 6 6 6 6 7 8 8
21 20 19 19 20 20 19 17 16 16 14 13 11 11 11 11 9 8 8 7 7 7 7 7 7 7 7 7 7 7 7 7 7 7 7 6 7 7 6 7 7 7 7 7 6 6 7 8 8
22 22 21 20 21 22 21 19 18 17 15 14 13 12 11 10 9 9 9 8 8 8 7 7 7 8 8 8 8 8 8 7 8 8 8 8 8 8 7 7 8 8 8 7 7 7 7 7 8
23 23 22 21 22 23 22 21 19 18 17 16 14 12 11 9 9 9 8 8 8 7 7 7 8 8 8 9 9 9 9 9 9 9 9 9 9 9 9 8 8 8 8 8 8 8 8 8 8
24 23 23 22 23 24 23 22 21 19 18 17 15 13 11 10 10 9 8 8 8 7 7 8 8 9 9 9 9 9 9 10 10 10 10 9 9 10 10 9 9 9 9 8 9 9 9 9 9
24 24 22 22 23 24 24 23 22 20 19 18 16 14 12 11 10 9 8 8 9 9 9 8 9 9 10 9 9 9 10 10 11 11 10 10 10 9 9 9 10 9 9 9 10 10 10 10 10
23 23 22 22 23 24 24 24 22 21 20 18 17 15 14 13 12 11 10 10 10 10 10 9 9 9 10 10 10 10 10 11 11 11 11 11 11 11 10 10 10 10 10 10 10 10 10 10 10
23 23 22 22 23 23 23 24 22 22 20 19 17 16 14 14 14 13 12 11 11 11 11 11 11 10 11 12 12 11 11 11 11 12 12 11 11 12 12 11 11 10 11 10 10 10 10 10 10
23 23 22 23 23 24 23 24 22 21 20 19 18 17 16 15 15 14 14 13 13 12 12 12 12 12 12 13 13 12 12 12 12 12 12 12 13 13 13 13 13 12 11 11 11 10 10 11 11
24 24 23 23 23 23 23 24 22 20 20 19 18 18 17 17 17 16 15 15 14 13 13 13 14 14 14 14 14 13 14 14 13 13 14 14 14 14 14 14 14 13 13 12 12 12 12 12 13
26 25 25 25 24 23 23 24 22 21 21 20 19 19 19 19 18 17 17 16 16 15 15 15 15 15 15 15 15 15 15 15 15 15 15 15 15 14 14 14 14 14 14 14 13 13 14 14 14
27 27 26 26 26 25 24 23 22 21 21 22 21 21 21 19 18 18 17 17 17 17 17 16 16 16 17 16 17 17 16 16 16 16 16 16 16 15 15 15 15 15 15 14 14 14 15 15 15
27 27 27 28 28 27 26 24 22 21 22 21 21 21 21 20 19 19 19 18 19 20 20 19 19 18 19 19 19 18 18 17 17 17 17 16 16 16 16 16 16 16 16 16 15 15 15 16 16
27 27 28 29 29 28 27 25 22 21 22 21 21 21 21 21 21 20 21 21 21 22 22 22 20 19 20 20 20 19 20 19 19 18 18 17 17 17 17 17 17 17 17 17 17 16 17 17 17
28 28 28 29 29 28 27 25 23 22 22 22 21 21 21 22 22 21 20 21 22 21 21 22 21 21 22 22 21 21 21 20 20 19 19 18 18 18 18 19 18 18 18 19 19 18 18 19 19
Wind_Direction
236 240 261 325 356 19 13 20 21 21 19 18 21 21 20 18 16 13 9 8 4 0 357 358 4 12 20 27 33 36 34 29 29 29 31 36 25 21 17 9 7 13 338 311 315 312 296 224 190
249 251 268 285 293 338 1 15 19 20 20 20 19 19 19 17 15 12 9 6 2 359 359 360 5 15 22 27 31 32 31 28 28 26 30 28 26 26 17 6 7 2 344 350 335 300 263 210 172
250 253 263 278 278 299 345 5 9 15 19 19 17 16 15 13 11 10 8 5 359 358 358 358 1 13 22 25 27 28 31 30 24 20 21 24 21 16 5 360 356 1 345 337 331 277 250 239 209
248 254 265 273 273 302 333 350 360 10 14 17 17 14 8 8 7 7 7 4 359 357 356 357 3 14 21 23 26 28 28 28 24 21 20 22 31 22 7 353 334 345 355 353 334 272 245 243 241
249 254 260 266 265 279 304 326 350 4 6 11 11 10 4 3 2 4 5 1 358 358 358 1 16 19 18 18 20 22 26 26 24 21 19 22 36 35 21 355 338 337 347 341 329 298 249 232 244
253 255 256 258 255 253 276 299 328 358 1 1 4 360 358 357 354 356 0 359 357 359 3 10 24 23 21 22 26 24 22 20 20 19 17 14 15 13 4 336 9 352 344 329 307 313 299 305 279
254 254 254 253 253 254 266 288 306 340 357 357 357 356 356 352 350 354 357 358 356 357 5 14 17 26 25 28 31 26 19 13 9 8 8 7 0 355 356 324 320 331 323 316 305 315 307 281 268
255 256 255 254 255 258 269 282 301 327 340 349 355 355 354 352 354 355 356 355 355 357 2 5 9 15 22 27 21 17 16 10 7 4 359 354 350 340 333 324 319 319 308 299 298 301 302 288 277
257 255 259 258 259 265 268 275 293 313 325 336 343 347 352 353 350 347 349 349 352 356 1 4 4 9 14 19 17 15 15 13 14 8 0 353 338 328 319 316 315 309 301 302 304 302 301 286 274
254 255 255 257 260 265 265 275 287 299 313 318 330 345 345 346 343 342 342 343 345 350 358 5 6 4 4 10 19 13 13 16 18 13 10 10 356 336 323 298 287 291 297 297 303 298 295 292 280
252 252 253 257 260 264 266 278 285 291 309 320 323 330 340 340 339 336 338 340 343 348 355 2 6 7 4 5 8 4 4 2 0 1 1 4 358 345 337 311 300 298 292 294 294 291 290 285 278
252 251 252 256 262 267 268 276 285 290 297 312 318 327 331 333 332 329 331 336 343 346 346 350 350 353 357 356 350 345 353 353 352 346 340 341 343 335 322 307 292 285 282 280 284 283 280 279 277
252 250 252 253 257 263 268 273 284 289 293 303 311 319 325 330 328 324 326 332 337 340 339 337 336 339 343 342 340 339 338 340 337 339 332 325 321 316 310 305 290 277 277 274 276 279 274 272 271
250 247 247 249 253 261 264 270 283 288 290 296 302 309 318 323 323 326 319 322 328 330 332 328 323 322 324 319 316 321 320 322 323 323 318 316 311 304 297 293 283 278 281 277 275 274 273 272 274
247 245 244 247 251 257 263 268 274 278 285 288 292 296 308 314 312 312 315 311 316 318 318 312 307 303 307 306 304 309 310 311 316 315 311 309 308 299 294 291 281 275 277 280 277 272 271 272 274
243 245 245 246 249 253 257 261 264 269 276 280 282 285 296 304 302 301 304 305 309 311 308 301 297 292 292 295 295 292 294 298 304 308 303 301 301 299 296 292 288 288 289 285 278 275 274 275 275
243 245 245 246 248 251 256 258 257 260 268 272 275 278 286 290 290 294 302 304 306 308 304 296 288 289 289 289 289 283 281 287 295 302 302 296 294 294 293 291 292 297 298 292 287 284 281 281 278
243 244 244 246 248 252 256 258 258 256 260 264 267 272 278 283 282 286 295 300 299 303 300 297 292 291 288 288 287 282 278 281 286 293 295 296 297 291 290 290 290 292 295 293 289 283 279 280 282
244 244 244 245 250 254 258 259 259 255 257 261 265 268 270 273 277 284 291 298 296 304 304 299 299 296 292 289 288 283 279 281 282 286 290 291 297 292 285 284 285 287 291 290 286 283 279 278 278
244 245 245 247 249 253 256 258 258 257 256 260 262 264 264 267 274 276 288 294 298 298 298 296 298 296 293 287 284 284 284 282 285 286 288 290 294 294 283 280 279 282 283 281 281 280 274 271 272
246 246 248 248 249 253 256 256 255 257 256 259 260 261 264 265 269 274 281 290 297 293 290 292 294 293 291 289 288 285 283 287 289 291 291 293 292 294 290 282 285 279 282 282 281 279 275 270 271
244 246 248 249 248 251 255 256 255 256 256 259 261 263 263 261 265 268 273 281 289 287 281 283 285 289 289 286 285 287 284 285 289 291 287 293 296 293 289 286 288 287 286 285 281 283 273 271 274
244 245 247 248 249 251 254 257 255 255 255 259 262 261 263 264 264 265 266 272 276 275 276 278 280 283 286 288 285 282 285 286 287 290 290 293 294 290 287 286 286 286 286 287 284 282 278 277 276
244 245 247 248 249 249 252 258 257 254 256 258 260 259 262 262 263 266 265 267 268 267 270 273 274 276 281 283 283 280 280 282 286 290 292 292 293 290 286 284 282 281 284 285 284 280 280 277 275
243 244 246 248 249 251 252 256 258 257 257 257 256 256 257 259 262 263 264 267 264 261 266 270 272 272 275 279 280 278 278 280 281 284 286 287 289 289 286 282 279 278 280 282 282 280 280 279 277
243 245 247 250 252 252 252 254 255 257 257 256 256 254 255 259 261 260 259 263 262 259 263 268 269 270 271 273 276 276 277 279 282 283 284 286 287 287 286 284 281 277 278 278 277 276 278 276 275
242 243 246 249 251 253 254 253 254 258 260 258 259 257 256 258 261 259 256 258 259 257 261 265 265 267 269 269 271 272 275 277 280 281 282 284 285 284 283 284 282 279 277 276 276 277 276 276 275
242 243 243 247 251 253 254 255 257 259 261 261 260 259 257 257 259 257 256 257 259 258 258 260 261 263 267 268 268 271 273 274 278 280 282 284 283 281 280 280 279 278 277 274 274 276 277 276 276
242 243 244 247 250 253 255 257 259 260 261 262 262 261 260 259 259 258 258 258 259 260 258 260 259 261 263 266 267 269 272 273 275 277 279 279 277 277 278 280 279 277 275 276 276 277 279 278 278
243 245 245 247 249 253 257 259 259 260 261 261 262 262 260 261 262 261 260 261 261 263 262 260 259 259 262 265 267 271 271 270 271 273 274 274 275 277 278 279 278 277 276 276 277 277 278 279 280
Height
5890 5890 5891 5892 5892 5891 5890 5889 5888 5887 5887 5886 5885 5884 5884 5883 5883 5884 5881 5879 5878 5877 5877 5876 5875 5875 5874 5874 5873 5873 5873 5873 5873 5873 5873 5873 5873 5874 5874 5874 5874 5874 5875 5875 5875 5876 5876 5876 5877
5890 5891 5892 5893 5892 5891 5890 5889 5888 5888 5887 5886 5885 5885 5884 5883 5882 5881 5880 5879 5878 5877 5876 5876 5875 5874 5874 5873 5873 5873 5873 5873 5873 5873 5873 5873 5874 5874 5874 5874 5874 5874 5875 5875 5875 5875 5876 5876 5877
5890 5891 5893 5892 5891 5891 5891 5890 5889 5888 5887 5887 5886 5885 5884 5883 5882 5881 5880 5879 5878 5877 5876 5875 5874 5874 5873 5873 5873 5873 5873 5873 5873 5873 5873 5873 5873 5874 5874 5874 5874 5874 5874 5875 5875 5875 5876 5876 5877
5890 5892 5893 5892 5891 5891 5891 5890 5889 5888 5888 5887 5886 5886 5884 5884 5882 5881 5880 5879 5878 5877 5876 5875 5874 5873 5873 5873 5873 5873 5873 5873 5873 5873 5873 5873 5873 5873 5874 5874 5874 5874 5874 5874 5875 5875 5876 5876 5877
5890 5891 5892 5891 5891 5891 5891 5890 5889 5888 5888 5887 5886 5886 5885 5884 5882 5881 5880 5879 5878 5877 5876 5874 5874 5874 5873 5873 5873 5873 5873 5873 5873 5873 5873 5873 5873 5873 5874 5874 5874 5874 5874 5874 5875 5875 5875 5876 5876
5890 5890 5891 5891 5890 5890 5890 5889 5889 5888 5888 5887 5886 5885 5884 5884 5882 5881 5880 5879 5878 5877 5875 5874 5874 5874 5874 5873 5873 5873 5873 5873 5873 5873 5873 5873 5873 5873 5873 5873 5873 5874 5874 5874 5874 5875 5875 5875 5876
5889 5889 5889 5890 5889 5889 5889 5889 5888 5888 5887 5887 5886 5885 5884 5883 5882 5881 5880 5879 5878 5877 5876 5874 5874 5874 5874 5874 5873 5873 5873 5873 5873 5873 5873 5873 5873 5873 5873 5873 5873 5873 5873 5874 5874 5874 5875 5875 5875
5887 5888 5888 5888 5888 5888 5888 5887 5887 5887 5887 5886 5886 5885 5884 5883 5882 5881 5880 5879 5878 5877 5876 5875 5874 5874 5874 5874 5874 5873 5873 5873 5873 5873 5872 5872 5873 5873 5873 5873 5873 5873 5873 5873 5873 5873 5874 5874 5874
5885 5887 5886 5886 5886 5886 5886 5886 5886 5886 5886 5886 5885 5884 5884 5882 5881 5881 5880 5879 5878 5877 5876 5875 5875 5874 5874 5873 5873 5873 5873 5873 5873 5872 5872 5872 5872 5872 5872 5873 5873 5873 5873 5873 5873 5873 5873 5873 5874
5883 5884 5885 5885 5885 5885 5885 5885 5885 5885 5885 5885 5885 5884 5882 5881 5881 5881 5880 5879 5878 5877 5876 5875 5874 5874 5873 5873 5873 5873 5873 5873 5872 5872 5872 5872 5871 5871 5872 5872 5872 5872 5872 5872 5872 5872 5872 5872 5873
5881 5882 5882 5882 5882 5883 5884 5884 5884 5884 5884 5884 5884 5883 5882 5881 5880 5880 5879 5878 5877 5876 5876 5875 5875 5874 5873 5873 5873 5873 5873 5872 5872 5872 5872 5871 5871 5871 5871 5871 5871 5871 5871 5871 5871 5872 5872 5872 5872
5879 5879 5880 5880 5880 5881 5882 5882 5883 5883 5883 5883 5882 5882 5881 5880 5879 5878 5878 5877 5876 5876 5875 5875 5875 5874 5873 5873 5873 5873 5873 5872 5872 5872 5872 5871 5871 5871 5871 5871 5870 5871 5871 5871 5871 5871 5871 5871 5871
5875 5876 5877 5877 5878 5879 5880 5880 5881 5881 5881 5881 5881 5880 5880 5879 5878 5878 5877 5876 5876 5875 5874 5874 5874 5874 5873 5873 5873 5873 5872 5872 5872 5871 5871 5871 5870 5870 5870 5870 5869 5869 5869 5869 5869 5869 5869 5869 5869
5872 5873 5874 5875 5876 5876 5877 5878 5879 5879 5879 5879 5879 5879 5878 5877 5877 5876 5876 5875 5875 5874 5874 5874 5873 5873 5873 5872 5872 5872 5872 5871 5871 5871 5871 5870 5869 5869 5869 5868 5868 5868 5868 5867 5867 5868 5868 5868 5868
5869 5871 5872 5872 5873 5874 5875 5876 5876 5876 5876 5877 5877 5877 5877 5876 5876 5875 5875 5875 5874 5874 5873 5873 5873 5872 5872 5872 5872 5871 5871 5871 5871 5870 5870 5869 5868 5868 5868 5867 5867 5866 5866 5866 5866 5866 5866 5866 5866
5866 5868 5869 5870 5870 5870 5873 5874 5874 5873 5873 5874 5875 5875 5875 5875 5874 5874 5874 5873 5873 5872 5872 5872 5872 5871 5871 5871 5870 5870 5870 5870 5870 5869 5868 5868 5867 5867 5866 5866 5865 5865 5864 5864 5864 5864 5864 5864 5864
5862 5864 5865 5866 5866 5867 5868 5870 5871 5870 5871 5872 5872 5873 5873 5872 5873 5872 5872 5871 5871 5871 5871 5870 5870 5870 5869 5869 5869 5869 5868 5868 5868 5868 5867 5866 5866 5865 5865 5865 5864 5864 5863 5862 5862 5862 5862 5862 5862
5858 5860 5861 5862 5863 5863 5864 5866 5867 5867 5868 5869 5870 5870 5870 5870 5871 5871 5870 5869 5869 5869 5869 5869 5869 5868 5868 5868 5867 5867 5867 5867 5866 5866 5865 5865 5864 5864 5863 5863 5863 5862 5862 5861 5861 5860 5860 5860 5860
5854 5856 5857 5859 5859 5859 5861 5862 5863 5864 5865 5866 5867 5867 5867 5867 5868 5868 5867 5867 5867 5867 5867 5867 5867 5866 5866 5866 5865 5865 5865 5865 5864 5864 5863 5863 5862 5861 5861 5861 5860 5860 5860 5859 5859 5858 5858 5858 5858
5849 5851 5853 5855 5855 5855 5856 5858 5859 5860 5861 5863 5864 5865 5864 5865 5866 5866 5865 5865 5865 5865 5865 5865 5865 5864 5864 5864 5863 5863 5863 5862 5862 5861 5861 5860 5859 5859 5858 5858 5858 5858 5857 5857 5856 5856 5856 5856 5856
5845 5847 5849 5850 5851 5851 5852 5854 5856 5856 5858 5859 5860 5861 5861 5862 5863 5863 5863 5863 5862 5863 5863 5863 5863 5862 5862 5861 5861 5860 5860 5860 5860 5859 5858 5858 5857 5856 5856 5856 5855 5855 5854 5854 5854 5854 5854 5854 5853
5840 5843 5844 5845 5846 5847 5848 5849 5852 5852 5854 5855 5856 5857 5858 5859 5859 5859 5859 5859 5859 5859 5860 5860 5860 5860 5859 5859 5858 5858 5858 5858 5857 5856 5856 5855 5854 5854 5854 5853 5853 5852 5852 5851 5851 5851 5851 5851 5851
5836 5837 5839 5840 5841 5842 5843 5845 5848 5849 5850 5852 5853 5853 5854 5855 5855 5855 5855 5856 5856 5856 5856 5857 5857 5857 5856 5856 5856 5855 5855 5855 5854 5853 5853 5853 5852 5851 5851 5851 5850 5849 5849 5849 5848 5848 5848 5848 5848
5831 5833 5834 5835 5836 5838 5840 5841 5843 5845 5846 5848 5849 5849 5850 5850 5851 5851 5851 5851 5852 5852 5853 5853 5853 5853 5853 5853 5852 5852 5852 5852 5851 5850 5850 5850 5849 5848 5848 5848 5847 5847 5846 5846 5845 5845 5845 5845 5845
5826 5828 5829 5830 5831 5833 5836 5836 5839 5841 5842 5843 5844 5845 5845 5846 5846 5846 5847 5847 5848 5849 5849 5849 5849 5849 5849 5849 5849 5849 5849 5848 5848 5847 5847 5846 5846 5845 5845 5844 5844 5843 5843 5842 5842 5842 5842 5841 5841
5820 5823 5825 5826 5827 5829 5831 5832 5835 5836 5837 5838 5839 5840 5841 5841 5842 5842 5842 5843 5843 5844 5845 5845 5845 5845 5845 5845 5845 5845 5845 5844 5844 5844 5843 5842 5842 5841 5841 5840 5840 5839 5839 5839 5839 5838 5838 5838 5837
5814 5816 5819 5821 5822 5824 5825 5828 5830 5831 5832 5833 5834 5835 5835 5836 5837 5837 5837 5838 5839 5839 5840 5840 5840 5840 5840 5840 5840 5840 5840 5840 5840 5839 5839 5838 5837 5837 5836 5836 5836 5835 5835 5835 5834 5834 5834 5834 5833
5809 5811 5813 5815 5816 5818 5820 5822 5825 5826 5827 5828 5829 5829 5830 5831 5832 5832 5832 5833 5834 5834 5834 5835 5835 5835 5835 5835 5836 5836 5836 5835 5835 5835 5834 5833 5833 5832 5832 5832 5831 5831 5831 5830 5830 5830 5830 5829 5829
5803 5805 5807 5809 5811 5813 5814 5820 5820 5821 5822 5823 5824 5824 5825 5826 5826 5827 5827 5827 5828 5828 5829 5829 5829 5830 5830 5830 5830 5830 5830 5830 5829 5829 5828 5828 5828 5827 5827 5827 5826 5826 5826 5826 5825 5825 5825 5825 5825
5797 5799 5802 5804 5806 5807 5809 5815 5815 5816 5816 5817 5818 5819 5819 5820 5820 5821 5821 5821 5821 5821 5822 5823 5823 5824 5824 5824 5824 5824 5824 5823 5823 5823 5823 5823 5823 5822 5822 5822 5821 5821 5821 5821 5821 5820 5820 5820 5819